AAL5642 KLAX-KDFW

Flight info

Callsign AAL5642
Flight time N/A
Altitude 37000
Route DOTSS2 CNERY BLH J169 TFD J50 SSO J4 INK GEEKY BOOVE7
Aircraft B738/M-SDE2E3FGHIRWXY/LB1

Departure

Time 2026-04-26 23:19
Airport Los Angeles International Airport (KLAX)

Arrival

Time N/A
Airport Dallas Fort Worth International Airport (KDFW)
Time Latitude Longitude Altitude Speed Heading
2026-04-26 22:52 33.94711 -118.40328 125 ft 0 kts 234°
2026-04-26 23:03 33.94712 -118.40327 134 ft 2 kts 234°
2026-04-26 23:03 33.94719 -118.40310 120 ft 2 kts 264°
2026-04-26 23:03 33.94720 -118.40290 120 ft 2 kts 266°
2026-04-26 23:04 33.94722 -118.40271 120 ft 2 kts 266°
2026-04-26 23:04 33.94716 -118.40254 121 ft 2 kts 344°
2026-04-26 23:04 33.94715 -118.40253 121 ft 0 kts 349°
2026-04-26 23:10 33.94765 -118.40266 123 ft 12 kts 344°
2026-04-26 23:10 33.94773 -118.40271 124 ft 0 kts 322°
2026-04-26 23:11 33.94806 -118.40349 123 ft 19 kts 263°
2026-04-26 23:11 33.94788 -118.40537 122 ft 33 kts 264°
2026-04-26 23:11 33.94766 -118.40774 125 ft 26 kts 263°
2026-04-26 23:12 33.94744 -118.40986 123 ft 24 kts 264°
2026-04-26 23:12 33.94719 -118.41181 125 ft 23 kts 258°
2026-04-26 23:12 33.94689 -118.41355 125 ft 13 kts 260°
2026-04-26 23:12 33.94676 -118.41457 123 ft 7 kts 255°
2026-04-26 23:13 33.94673 -118.41473 122 ft 7 kts 261°
2026-04-26 23:13 33.94657 -118.41597 122 ft 21 kts 263°
2026-04-26 23:13 33.94633 -118.41768 125 ft 18 kts 248°
2026-04-26 23:13 33.94504 -118.41799 122 ft 24 kts 170°
2026-04-26 23:14 33.94334 -118.41774 122 ft 26 kts 174°
2026-04-26 23:14 33.94225 -118.41761 123 ft 16 kts 174°
2026-04-26 23:14 33.94085 -118.41743 123 ft 25 kts 170°
2026-04-26 23:14 33.93887 -118.41710 122 ft 32 kts 173°
2026-04-26 23:15 33.93718 -118.41644 124 ft 23 kts 110°
2026-04-26 23:15 33.93743 -118.41473 125 ft 13 kts 91°
2026-04-26 23:15 33.93741 -118.41347 125 ft 21 kts 90°
2026-04-26 23:15 33.93762 -118.41133 125 ft 32 kts 82°
2026-04-26 23:16 33.93793 -118.40823 124 ft 41 kts 82°
2026-04-26 23:16 33.93832 -118.40457 125 ft 46 kts 84°
2026-04-26 23:16 33.93871 -118.40050 122 ft 48 kts 80°
2026-04-26 23:16 33.93911 -118.39649 122 ft 49 kts 83°
2026-04-26 23:17 33.93956 -118.39235 123 ft 50 kts 83°
2026-04-26 23:17 33.93987 -118.38914 124 ft 34 kts 83°
2026-04-26 23:17 33.94020 -118.38644 125 ft 30 kts 81°
2026-04-26 23:17 33.94039 -118.38405 123 ft 28 kts 83°
2026-04-26 23:18 33.94066 -118.38182 125 ft 26 kts 83°
2026-04-26 23:18 33.94059 -118.38027 124 ft 17 kts 119°
2026-04-26 23:18 33.94002 -118.38001 122 ft 0 kts 198°
2026-04-26 23:18 33.93987 -118.38026 124 ft 10 kts 244°
2026-04-26 23:19 33.93971 -118.38166 125 ft 44 kts 262°
2026-04-26 23:19 33.93895 -118.38875 121 ft 124 kts 262°
2026-04-26 23:19 33.93813 -118.40130 436 ft 164 kts 268°
2026-04-26 23:19 33.93771 -118.41473 1601 ft 153 kts 258°
2026-04-26 23:20 33.93569 -118.42859 2167 ft 183 kts 259°
2026-04-26 23:20 33.93378 -118.44470 2532 ft 207 kts 262°
2026-04-26 23:20 33.93160 -118.45619 2753 ft 217 kts 248°
2026-04-26 23:20 33.92369 -118.47158 3425 ft 218 kts 234°
2026-04-26 23:21 33.91427 -118.48609 4017 ft 223 kts 232°
2026-04-26 23:21 33.90424 -118.50053 4639 ft 228 kts 231°
2026-04-26 23:21 33.89371 -118.51529 5101 ft 241 kts 231°
2026-04-26 23:21 33.88247 -118.53116 5576 ft 255 kts 231°
2026-04-26 23:22 33.87040 -118.54731 6392 ft 261 kts 221°
2026-04-26 23:22 33.84804 -118.55881 7527 ft 271 kts 188°
2026-04-26 23:22 33.83545 -118.55858 8075 ft 277 kts 174°
2026-04-26 23:22 33.81653 -118.55384 8964 ft 279 kts 170°
2026-04-26 23:23 33.79749 -118.54837 9843 ft 284 kts 170°
2026-04-26 23:23 33.77800 -118.54284 10491 ft 296 kts 171°
2026-04-26 23:23 33.75713 -118.53710 10766 ft 317 kts 171°
2026-04-26 23:23 33.73540 -118.53120 11444 ft 323 kts 171°
2026-04-26 23:24 33.71384 -118.52308 12218 ft 331 kts 156°
2026-04-26 23:24 33.69572 -118.50532 13016 ft 345 kts 133°
2026-04-26 23:24 33.68395 -118.47980 13783 ft 357 kts 115°
2026-04-26 23:24 33.67564 -118.45130 14485 ft 365 kts 112°
2026-04-26 23:25 33.66764 -118.42230 15243 ft 367 kts 112°
2026-04-26 23:25 33.65936 -118.39319 15915 ft 371 kts 114°
2026-04-26 23:25 33.65074 -118.36380 16568 ft 375 kts 114°
2026-04-26 23:25 33.64387 -118.33334 17175 ft 386 kts 98°
2026-04-26 23:26 33.64317 -118.30089 17849 ft 391 kts 93°
2026-04-26 23:26 33.64348 -118.26804 18468 ft 396 kts 92°
2026-04-26 23:26 33.64392 -118.23486 18989 ft 401 kts 92°
2026-04-26 23:26 33.64427 -118.20125 19487 ft 405 kts 93°
2026-04-26 23:27 33.64449 -118.16724 20024 ft 409 kts 93°
2026-04-26 23:27 33.64460 -118.13337 20522 ft 413 kts 93°
2026-04-26 23:27 33.64462 -118.09871 21024 ft 418 kts 94°
2026-04-26 23:27 33.64461 -118.06360 21526 ft 423 kts 94°
2026-04-26 23:28 33.64457 -118.02818 22076 ft 426 kts 94°
2026-04-26 23:28 33.64451 -117.99241 22583 ft 431 kts 94°
2026-04-26 23:28 33.64445 -117.95633 23068 ft 435 kts 94°
2026-04-26 23:28 33.64439 -117.91983 23538 ft 439 kts 94°
2026-04-26 23:29 33.64432 -117.88297 23944 ft 443 kts 94°
2026-04-26 23:29 33.64424 -117.84584 24358 ft 447 kts 94°
2026-04-26 23:29 33.64410 -117.80846 24763 ft 449 kts 95°
2026-04-26 23:29 33.64001 -117.77154 25114 ft 445 kts 110°
2026-04-26 23:30 33.63148 -117.73589 25538 ft 445 kts 113°
2026-04-26 23:30 33.62220 -117.70037 25922 ft 448 kts 114°
2026-04-26 23:30 33.61272 -117.66457 26286 ft 453 kts 114°
2026-04-26 23:30 33.60328 -117.62833 26643 ft 457 kts 113°
2026-04-26 23:31 33.59397 -117.59177 27013 ft 460 kts 113°
2026-04-26 23:31 33.58474 -117.55488 27372 ft 464 kts 112°
2026-04-26 23:31 33.57549 -117.51760 27705 ft 468 kts 112°
2026-04-26 23:31 33.56620 -117.48002 28063 ft 472 kts 113°
2026-04-26 23:32 33.55683 -117.44215 28384 ft 476 kts 113°
2026-04-26 23:32 33.54736 -117.40397 28696 ft 479 kts 113°
2026-04-26 23:32 33.53784 -117.36562 28977 ft 482 kts 113°
2026-04-26 23:32 33.52823 -117.32704 29302 ft 484 kts 113°
2026-04-26 23:33 33.51852 -117.28815 29584 ft 488 kts 113°
2026-04-26 23:33 33.50875 -117.24902 29820 ft 493 kts 112°
2026-04-26 23:33 33.50262 -117.20803 30037 ft 509 kts 97°
2026-04-26 23:33 33.50181 -117.16548 30330 ft 513 kts 95°
2026-04-26 23:34 33.50179 -117.12262 30587 ft 515 kts 94°
2026-04-26 23:34 33.50190 -117.07964 30832 ft 518 kts 94°
2026-04-26 23:34 33.50185 -117.03635 31051 ft 521 kts 95°
2026-04-26 23:34 33.50156 -116.99288 31289 ft 523 kts 95°
2026-04-26 23:35 33.50106 -116.94930 31538 ft 524 kts 95°
2026-04-26 23:35 33.50042 -116.90554 31759 ft 527 kts 95°
2026-04-26 23:35 33.49971 -116.86158 31989 ft 529 kts 96°
2026-04-26 23:35 33.49898 -116.81751 32322 ft 528 kts 96°
2026-04-26 23:36 33.49826 -116.77351 32631 ft 528 kts 96°
2026-04-26 23:36 33.49753 -116.72950 32908 ft 529 kts 96°
2026-04-26 23:36 33.49679 -116.68545 33153 ft 530 kts 96°
2026-04-26 23:36 33.49605 -116.64136 33429 ft 530 kts 96°
2026-04-26 23:37 33.49529 -116.59726 33721 ft 530 kts 96°
2026-04-26 23:37 33.49451 -116.55312 33980 ft 530 kts 96°
2026-04-26 23:37 33.49369 -116.50898 34173 ft 531 kts 96°
2026-04-26 23:37 33.49290 -116.46474 34438 ft 531 kts 96°
2026-04-26 23:38 33.49209 -116.42052 34659 ft 532 kts 96°
2026-04-26 23:38 33.49137 -116.37680 34901 ft 532 kts 96°
2026-04-26 23:38 33.49072 -116.33249 35124 ft 532 kts 96°
2026-04-26 23:38 33.49009 -116.28821 35318 ft 533 kts 96°
2026-04-26 23:39 33.48944 -116.24374 35506 ft 534 kts 96°
2026-04-26 23:39 33.48876 -116.19864 35747 ft 534 kts 96°
2026-04-26 23:39 33.48808 -116.15481 36028 ft 531 kts 96°
2026-04-26 23:39 33.48735 -116.10997 36207 ft 532 kts 96°
2026-04-26 23:40 33.48660 -116.06610 36275 ft 536 kts 96°
2026-04-26 23:40 33.48916 -116.02067 36328 ft 546 kts 80°
2026-04-26 23:40 33.49995 -115.97767 36531 ft 547 kts 71°
2026-04-26 23:40 33.51307 -115.93504 36822 ft 544 kts 69°
2026-04-26 23:41 33.52649 -115.89252 36933 ft 546 kts 70°
2026-04-26 23:41 33.55274 -115.80662 36916 ft 549 kts 71°
2026-04-26 23:42 33.57780 -115.72061 36899 ft 544 kts 71°
2026-04-26 23:42 33.61469 -115.59283 36887 ft 538 kts 71°
2026-04-26 23:43 33.63925 -115.50801 36916 ft 540 kts 71°
2026-04-26 23:43 33.66383 -115.42223 36903 ft 548 kts 71°
2026-04-26 23:44 33.68865 -115.33569 36884 ft 548 kts 72°
2026-04-26 23:44 33.71230 -115.25343 36879 ft 548 kts 72°
2026-04-26 23:45 33.73714 -115.16673 36895 ft 552 kts 71°
2026-04-26 23:45 33.76222 -115.07896 36893 ft 559 kts 71°
2026-04-26 23:46 33.78750 -114.98986 36931 ft 567 kts 71°
2026-04-26 23:46 33.81252 -114.89941 36877 ft 573 kts 71°
2026-04-26 23:47 33.83788 -114.80815 36876 ft 576 kts 71°
2026-04-26 23:47 33.86333 -114.71658 36877 ft 578 kts 71°
2026-04-26 23:48 33.88890 -114.62471 36861 ft 579 kts 71°
2026-04-26 23:48 33.91443 -114.53301 36847 ft 575 kts 71°
2026-04-26 23:49 33.93970 -114.44193 36853 ft 572 kts 75°
2026-04-26 23:49 33.94618 -114.39501 36843 ft 565 kts 94°
2026-04-26 23:49 33.94261 -114.34853 36874 ft 552 kts 109°
2026-04-26 23:50 33.93174 -114.30485 36850 ft 540 kts 121°
2026-04-26 23:50 33.91466 -114.26543 36854 ft 524 kts 132°
2026-04-26 23:50 33.87631 -114.19052 36855 ft 528 kts 131°
2026-04-26 23:51 33.83883 -114.11419 36861 ft 531 kts 130°
2026-04-26 23:51 33.80164 -114.03728 36852 ft 533 kts 130°
2026-04-26 23:52 33.76431 -113.96025 36860 ft 534 kts 130°
2026-04-26 23:52 33.72679 -113.88325 36881 ft 534 kts 130°
2026-04-26 23:53 33.68943 -113.80684 36906 ft 534 kts 130°
2026-04-26 23:53 33.65173 -113.72989 36931 ft 535 kts 131°
2026-04-26 23:54 33.61392 -113.65290 36941 ft 536 kts 131°
2026-04-26 23:54 33.57604 -113.57587 36938 ft 536 kts 131°
2026-04-26 23:55 33.53808 -113.49887 36936 ft 537 kts 131°
2026-04-26 23:55 33.50008 -113.42192 36925 ft 537 kts 131°
2026-04-26 23:56 33.46210 -113.34484 36893 ft 539 kts 129°
2026-04-26 23:56 33.42849 -113.26381 36871 ft 546 kts 124°
2026-04-26 23:57 33.39693 -113.18103 36864 ft 547 kts 124°
2026-04-26 23:57 33.36511 -113.09848 36864 ft 546 kts 125°
2026-04-26 23:58 33.33296 -113.01695 36872 ft 545 kts 125°
2026-04-26 23:58 33.30039 -112.93517 36878 ft 545 kts 126°
2026-04-26 23:59 33.26780 -112.85352 36878 ft 544 kts 126°
2026-04-26 23:59 33.23521 -112.77193 36878 ft 544 kts 126°
2026-04-27 00:00 33.20266 -112.69054 36885 ft 543 kts 126°
2026-04-27 00:00 33.16997 -112.60907 36876 ft 544 kts 126°
2026-04-27 00:01 33.13726 -112.52773 36866 ft 544 kts 126°
2026-04-27 00:01 33.10448 -112.44639 36861 ft 544 kts 126°
2026-04-27 00:02 33.07161 -112.36503 36869 ft 546 kts 126°
2026-04-27 00:02 33.03856 -112.28343 36864 ft 546 kts 126°
2026-04-27 00:03 33.00547 -112.20188 36873 ft 547 kts 126°
2026-04-27 00:03 32.97226 -112.12025 36876 ft 548 kts 126°
2026-04-27 00:04 32.93897 -112.03859 36887 ft 548 kts 126°
2026-04-27 00:04 32.90563 -111.95695 36888 ft 549 kts 126°
2026-04-27 00:05 32.87615 -111.87233 36885 ft 564 kts 113°
2026-04-27 00:05 32.85697 -111.78139 36896 ft 568 kts 111°
2026-04-27 00:06 32.83795 -111.69056 36866 ft 559 kts 112°
2026-04-27 00:06 32.82824 -111.64655 36854 ft 542 kts 113°
2026-04-27 00:06 32.81880 -111.60436 36860 ft 530 kts 113°
2026-04-27 00:07 32.79972 -111.52009 36867 ft 527 kts 114°
2026-04-27 00:07 32.78063 -111.43613 36868 ft 526 kts 114°
2026-04-27 00:08 32.76467 -111.36585 36870 ft 525 kts 114°
2026-04-27 00:08 32.74564 -111.28210 36876 ft 525 kts 114°
2026-04-27 00:09 32.72653 -111.19826 36876 ft 526 kts 114°
2026-04-27 00:09 32.70736 -111.11445 36865 ft 527 kts 114°
2026-04-27 00:10 32.68809 -111.03047 36847 ft 528 kts 114°
2026-04-27 00:10 32.66874 -110.94643 36831 ft 528 kts 113°
2026-04-27 00:11 32.64943 -110.86283 36825 ft 529 kts 114°